Skip Page Navigation
NASA JPL Caltech
NASA Logo - Jet Propulsion Laboratory + View the NASA Portal
+ Center for Near-Earth Object Studies
JPL Home Earth Solar System Stars & Galaxies Technology
JPL Solar System Dynamics
BODIES ORBITS EPHEMERIDES TOOLS PHYSICAL DATA DISCOVERY FAQ SITE MAP
IMPORTANT: The SSD Announcement email list is now available. Major changes are coming in the near future, including possible hostname and/or URL changes. To be notified of such changes, subscribe to this email list.

Please visit this page for more details.


JPL Small-Body Database Browser
Search: [ help ]  
154557 (2003 HB8)
Classification: Main-belt Asteroid          SPK-ID: 2154557
Ephemeris | Orbit Diagram | Orbital Elements | Mission Design | Physical Parameters | Discovery Circumstances | Close-Approach Data ]

[ show orbit diagram ]
Orbital Elements at Epoch 2459000.5 (2020-May-31.0) TDB
Reference: JPL 14 (heliocentric ecliptic J2000)
 Element Value Uncertainty (1-sigma)   Units 
e .1111100607275482 5.4376e-08  
a 2.70853980317327 2.1846e-08 au
q 2.407593781159707 1.5194e-07 au
i 3.303337985213623 5.8644e-06 deg
node 17.39492433583919 9.1464e-05 deg
peri 177.1260593312111 9.4757e-05 deg
M 318.1352382910518 2.5566e-05 deg
tp 2459189.842184263026
(2020-Dec-06.34218426)
0.00011657 TDB
period 1628.175667368485
4.46
1.9698e-05
5.393e-08
d
yr
n .2211063629158914 2.675e-09 deg/d
Q 3.009485825186833 2.4273e-08 au
  Orbit Determination Parameters
   # obs. used (total)      249  
   data-arc span      6591 days (18.05 yr)  
   first obs. used      2001-12-19  
   last obs. used      2020-01-05  
   planetary ephem.      DE431  
   SB-pert. ephem.      SB431-N16  
   condition code      0  
   norm. resid. RMS      .63746  
   source      ORB  
   producer      Otto Matic  
   solution date      2020-Jan-29 20:04:01  

Additional Information
 Earth MOID = 1.40653 au 
 Jupiter MOID = 1.94665 au 
 T_jup = 3.353 
[ show covariance matrix ]

Ephemeris | Orbit Diagram | Orbital Elements | Mission Design | Physical Parameters | Discovery Circumstances | Close-Approach Data ]

Physical Parameter Table
Parameter Symbol Value Units Sigma Reference Notes
absolute magnitude H 16.4   n/a MPO417825  

154557 (2003 HB8)          Discovered 2003-Apr-24 by LONEOS at Anderson Mesa
Reference: 20070402/Numbers.arcLast Updated: 2007-04-04

[ show close-approach data ]
Alternate Designations
 2003 HB8 = 2005 VL23 
Ephemeris | Orbit Diagram | Orbital Elements | Mission Design | Physical Parameters | Discovery Circumstances | Close-Approach Data ]
ABOUT SSD CREDITS/AWARDS PRIVACY/COPYRIGHT GLOSSARY LINKS
FirstGov 2020-Feb-23 21:05 UT
(server date/time)  
NASA Home Page
Site Manager:   Ryan S. Park
Webmaster  Alan B. Chamberlin